Rotterdam, Netherlands

1:36 AM CEST on March 27, 2017 (GMT +0200)
Rotterdam

Weather History for EHRD - May, 2014

Change the Weather History Date:

Tuesday, May 20, 2014

  Actual Average Record
Temperature  
Mean Temperature 68 °F -  
Max Temperature 79 °F 65 °F 79 °F (2014)
Min Temperature 57 °F 49 °F 37 °F (2008)
Cooling Degree Days 4    
Growing Degree Days 18 (Base 50)    
Moisture  
Dew Point 53 °F    
Average Humidity 56    
Maximum Humidity 94    
Minimum Humidity 31    
Precipitation  
Precipitation 0.43 in - - ()
Sea Level Pressure  
Sea Level Pressure 29.79 in    
Wind  
Wind Speed 8 mph ()    
Max Wind Speed 18 mph    
Max Gust Speed -    
Visibility 9.0 miles    
Events Rain , Thunderstorm    
Averages and records for this station are not official NWS values.
T = Trace of Precipitation, MM = Missing Value Source: Averaged Metar Reports

Daily Weather History Graph

Daily Weather History Graph

Search for Another Location

Airport or City:

Trip Planner

Search our weather history database for the weather conditions in past years. The results will help you decide how hot, cold, wet, or windy it might be!

Date:

Astronomy

May. 20, 2014 Rise Set
Actual Time 5:41 AM CEST 9:36 PM CEST
Civil Twilight 4:58 AM CEST 10:20 PM CEST
Nautical Twilight 3:57 AM CEST 11:21 PM CEST
Astronomical Twilight 1:58 AM CEST 1:06 AM CEST
Moon 1:39 AM CEST (5/20) 11:49 AM CEST (5/20)
Length of Visible Light 17h 21m
Length of Day
15h 55m
Waning Gibbous, 63% of the Moon is Illuminated
May 20
Waning Gibbous
May 21
Last Quarter
May 28
New
Jun 5
First Quarter
Jun 13
Full

Hourly Weather History & Observations

Time (CEST) Temp. Dew Point Humidity Pressure Visibility Wind Dir Wind Speed Gust Speed Precip Events Conditions
12:00 AM 66 °F 53 °F 54% 29.73 in 17 mi East 8.9 mph - -   Scattered Clouds
12:25 AM 66.2 °F 53.6 °F 64% 29.71 in 6.2 mi East 6.9 mph - N/A   Unknown
12:55 AM 66.2 °F 53.6 °F 64% 29.71 in 6.2 mi East 9.2 mph - N/A   Unknown
1:00 AM 65 °F 53 °F 55% 29.73 in 16 mi East 8.9 mph - -  
1:25 AM 64.4 °F 51.8 °F 64% 29.71 in 6.2 mi East 9.2 mph - N/A   Unknown
1:55 AM 64.4 °F 51.8 °F 64% 29.71 in 6.2 mi ESE 8.1 mph - N/A   Unknown
2:00 AM 64 °F 52 °F 57% 29.74 in 12 mi ESE 6.7 mph - -   Partly Cloudy
2:25 AM 62.6 °F 51.8 °F 68% 29.74 in 6.2 mi ESE 6.9 mph - N/A   Unknown
2:55 AM 62.6 °F 51.8 °F 68% 29.74 in 6.2 mi ESE 6.9 mph - N/A   Unknown
3:00 AM 63 °F 52 °F 59% 29.75 in 13 mi ESE 6.7 mph - -  
3:25 AM 62.6 °F 51.8 °F 68% 29.74 in 6.2 mi SE 4.6 mph - N/A   Unknown
3:55 AM 62.6 °F 51.8 °F 68% 29.74 in 6.2 mi SSE 6.9 mph - N/A   Unknown
4:00 AM 64 °F 51 °F 53% 29.75 in 19 mi SSE 6.7 mph - -   Scattered Clouds
4:25 AM 62.6 °F 51.8 °F 68% 29.74 in 6.2 mi SSE 5.8 mph - N/A   Unknown
4:55 AM 60.8 °F 51.8 °F 72% 29.74 in 6.2 mi SSE 5.8 mph - N/A   Unknown
5:00 AM 61 °F 51 °F 61% 29.76 in 25 mi SE 4.5 mph - -   Scattered Clouds
5:25 AM 62.6 °F 50.0 °F 63% 29.74 in 6.2 mi SE 8.1 mph - N/A   Unknown
5:55 AM 64.4 °F 50.0 °F 59% 29.74 in 6.2 mi SSE 9.2 mph - N/A   Unknown
6:00 AM 64 °F 51 °F 52% 29.77 in 19 mi SSE 8.9 mph - -   Overcast
6:25 AM 64.4 °F 50.0 °F 59% 29.77 in 6.2 mi SSE 9.2 mph - N/A   Unknown
6:55 AM 64.4 °F 50.0 °F 59% 29.77 in 6.2 mi SSE 9.2 mph - N/A   Unknown
7:00 AM 64 °F 51 °F 52% 29.78 in 19 mi SSE 8.9 mph - -   Overcast
7:25 AM 64.4 °F 51.8 °F 64% 29.77 in 6.2 mi SSE 8.1 mph - N/A   Unknown
7:55 AM 66.2 °F 51.8 °F 60% 29.77 in 6.2 mi SSE 9.2 mph - N/A   Unknown
8:00 AM 67 °F 52 °F 47% 29.79 in 17 mi SSE 11.2 mph - -   Partly Cloudy
8:25 AM 68.0 °F 51.8 °F 56% 29.77 in 6.2 mi SSE 9.2 mph - N/A   Unknown
8:55 AM 69.8 °F 51.8 °F 53% 29.77 in 6.2 mi SE 9.2 mph - N/A   Unknown
9:00 AM 70 °F 51 °F 41% 29.79 in 17 mi SE 11.2 mph - -   Overcast
9:25 AM 69.8 °F 51.8 °F 53% 29.77 in 6.2 mi SE 10.4 mph - N/A   Unknown
9:55 AM 69.8 °F 51.8 °F 53% 29.80 in 6.2 mi SSE 11.5 mph - N/A   Unknown
10:00 AM 71 °F 52 °F 40% 29.81 in 19 mi SSE 11.2 mph - -   Overcast
10:25 AM 71.6 °F 51.8 °F 50% 29.80 in 6.2 mi SSE 13.8 mph - N/A   Unknown
10:55 AM 71.6 °F 51.8 °F 50% 29.80 in 6.2 mi South 12.7 mph - N/A   Unknown
11:00 AM 71 °F 52 °F 41% 29.82 in 16 mi South 15.7 mph - -   Scattered Clouds
11:25 AM 71.6 °F 51.8 °F 50% 29.80 in 6.2 mi SSE 12.7 mph - N/A   Unknown
11:55 AM 73.4 °F 51.8 °F 47% 29.80 in 6.2 mi SSE 15.0 mph - N/A   Unknown
12:00 PM 73 °F 51 °F 35% 29.82 in 19 mi SSE 15.7 mph - -   Mostly Cloudy
12:25 PM 73.4 °F 51.8 °F 47% 29.80 in 6.2 mi SSE 16.1 mph - N/A   Unknown
12:55 PM 75.2 °F 51.8 °F 44% 29.80 in 6.2 mi SSE 13.8 mph - N/A   Unknown
1:00 PM 75 °F 52 °F 34% 29.82 in 19 mi SSE 15.7 mph - -  
1:25 PM 75.2 °F 51.8 °F 44% 29.80 in 6.2 mi SSE 15.0 mph - N/A   Unknown
1:55 PM 77.0 °F 51.8 °F 41% 29.80 in 6.2 mi SE 17.3 mph - N/A   Unknown
2:00 PM 77 °F 53 °F 32% 29.82 in 19 mi SSE 17.9 mph - -   Partly Cloudy
2:25 PM 77.0 °F 53.6 °F 44% 29.80 in 6.2 mi South 16.1 mph - N/A   Unknown
2:55 PM 78.8 °F 53.6 °F 42% 29.80 in 6.2 mi South 16.1 mph - N/A   Unknown
3:00 PM 77 °F 53 °F 32% 29.83 in 15 mi South 15.7 mph - -  
3:25 PM 77.0 °F 53.6 °F 44% 29.80 in 6.2 mi South 11.5 mph - N/A   Unknown
3:55 PM 77.0 °F 53.6 °F 44% 29.80 in 6.2 mi SSE 12.7 mph - N/A   Unknown
4:00 PM 79 °F 54 °F 31% 29.83 in 17 mi South 11.2 mph - -   Partly Cloudy
4:25 PM 77.0 °F 53.6 °F 44% 29.80 in 6.2 mi South 12.7 mph - N/A   Unknown
4:55 PM 77.0 °F 53.6 °F 44% 29.80 in 6.2 mi SSE 9.2 mph - N/A   Unknown
5:00 PM 77 °F 53 °F 33% 29.82 in 22 mi South 13.4 mph - -   Mostly Cloudy
5:25 PM 77.0 °F 53.6 °F 44% 29.80 in 6.2 mi South 9.2 mph - N/A   Unknown
5:55 PM 77.0 °F 53.6 °F 44% 29.80 in 6.2 mi SSW 12.7 mph - N/A   Unknown
6:00 PM 73 °F 56 °F 45% 29.82 in 22 mi West 8.9 mph - -   Overcast
6:25 PM 71.6 °F 57.2 °F 60% 29.80 in 6.2 mi NW 6.9 mph - N/A   Unknown
6:55 PM 71.6 °F 57.2 °F 60% 29.80 in 6.2 mi North 5.8 mph - N/A   Unknown
7:00 PM 70 °F 57 °F 53% 29.83 in 19 mi North 4.5 mph - -   Overcast
7:25 PM 69.8 °F 57.2 °F 64% 29.83 in 6.2 mi NNW 4.6 mph - N/A   Unknown
7:55 PM 66.2 °F 53.6 °F 64% 29.83 in 6.2 mi NW 9.2 mph - N/A   Unknown
8:00 PM 65 °F 53 °F 57% 29.85 in 22 mi NW 8.9 mph - -   Partly Cloudy
8:25 PM 64.4 °F 53.6 °F 68% 29.83 in 6.2 mi NW 4.6 mph - N/A   Unknown
8:55 PM 62.6 °F 53.6 °F 72% 29.83 in 6.2 mi North 3.5 mph - N/A   Unknown
9:00 PM 62 °F 53 °F 65% 29.86 in 25 mi NW 4.5 mph - -   Scattered Clouds
9:25 PM 60.8 °F 53.6 °F 77% 29.83 in 6.2 mi WNW 3.5 mph - N/A   Unknown
9:55 PM 60.8 °F 53.6 °F 77% 29.83 in 6.2 mi WNW 3.5 mph - N/A Thunderstorm Thunderstorm
10:00 PM 61 °F 53 °F 69% 29.86 in 6 mi Calm Calm - - Rain Light Rain Showers
10:25 PM 60.8 °F 55.4 °F 82% 29.86 in 6.2 mi West 3.5 mph - N/A   Scattered Clouds
10:55 PM 59.0 °F 55.4 °F 88% 29.86 in 6.2 mi WNW 6.9 mph - N/A Rain , Thunderstorm Thunderstorms and Rain
11:00 PM 60 °F 56 °F 81% 29.88 in 10 mi SW 8.9 mph - - Rain , Thunderstorm Light Thunderstorms and Rain
11:25 PM 59.0 °F 55.4 °F 88% 29.86 in 6.2 mi WNW 4.6 mph - N/A Thunderstorm Thunderstorm
11:55 PM 57.2 °F 55.4 °F 94% 29.86 in 6.2 mi WNW 5.8 mph - N/A   Unknown